TimeEST,TemperatureF,Dew PointF,Humidity,Sea Level PressureIn,VisibilityMPH,Wind Direction,Wind SpeedMPH,Gust SpeedMPH,PrecipitationIn,Events,Conditions,WindDirDegrees,DateUTC
12:15 AM,35.6,23.0,60,30.07,10.0,South,6.9,-,N/A,,Clear,180,2013-02-19 05:15:00
12:35 AM,33.8,23.0,65,30.05,10.0,South,3.5,-,N/A,,Clear,190,2013-02-19 05:35:00
12:55 AM,33.8,23.0,65,30.05,10.0,Calm,Calm,-,N/A,,Clear,0,2013-02-19 05:55:00
1:15 AM,33.8,23.0,65,30.05,10.0,Calm,Calm,-,N/A,,Clear,0,2013-02-19 06:15:00
1:35 AM,33.8,23.0,65,30.05,10.0,South,6.9,-,N/A,,Clear,190,2013-02-19 06:35:00
1:55 AM,33.8,23.0,65,30.04,10.0,SSW,6.9,-,N/A,,Clear,200,2013-02-19 06:55:00
2:15 AM,33.8,23.0,65,30.03,10.0,South,4.6,-,N/A,,Clear,190,2013-02-19 07:15:00
2:35 AM,33.8,23.0,65,30.02,10.0,SSE,3.5,-,N/A,,Clear,160,2013-02-19 07:35:00
2:55 AM,32.0,23.0,69,30.01,10.0,Calm,Calm,-,N/A,,Clear,0,2013-02-19 07:55:00
3:15 AM,30.2,23.0,75,30.00,10.0,Calm,Calm,-,N/A,,Clear,0,2013-02-19 08:15:00
3:35 AM,32.0,24.8,75,29.97,10.0,SSE,5.8,-,N/A,,Scattered Clouds,160,2013-02-19 08:35:00
3:55 AM,33.8,26.6,75,29.97,10.0,South,4.6,-,N/A,,Scattered Clouds,180,2013-02-19 08:55:00
4:15 AM,35.6,26.6,70,29.95,10.0,SSE,3.5,-,N/A,,Clear,150,2013-02-19 09:15:00
4:35 AM,35.6,26.6,70,29.94,10.0,Calm,Calm,-,N/A,,Clear,0,2013-02-19 09:35:00
4:55 AM,35.6,26.6,70,29.93,10.0,South,6.9,-,N/A,,Scattered Clouds,170,2013-02-19 09:55:00
5:15 AM,35.6,26.6,70,29.93,10.0,South,4.6,-,N/A,,Mostly Cloudy,180,2013-02-19 10:15:00
5:35 AM,35.6,26.6,70,29.93,10.0,South,5.8,-,N/A,,Overcast,170,2013-02-19 10:35:00
5:55 AM,35.6,26.6,70,29.92,10.0,Calm,Calm,-,N/A,,Overcast,0,2013-02-19 10:55:00
6:15 AM,35.6,26.6,70,29.93,10.0,South,3.5,-,N/A,,Overcast,190,2013-02-19 11:15:00
6:35 AM,35.6,26.6,70,29.93,10.0,Calm,Calm,-,N/A,,Overcast,0,2013-02-19 11:35:00
6:55 AM,35.6,26.6,70,29.91,10.0,SSE,4.6,-,N/A,,Overcast,150,2013-02-19 11:55:00
7:15 AM,35.6,26.6,70,29.90,10.0,Calm,Calm,-,N/A,,Overcast,0,2013-02-19 12:15:00
7:35 AM,35.6,28.4,75,29.90,10.0,Calm,Calm,-,N/A,,Light Drizzle,0,2013-02-19 12:35:00
7:55 AM,35.6,30.2,81,29.90,4.0,Calm,Calm,-,N/A,Rain,Light Rain,0,2013-02-19 12:55:00
8:15 AM,35.6,32.0,87,29.89,7.0,South,5.8,-,0.01,Rain,Rain,190,2013-02-19 13:15:00
8:35 AM,37.4,32.0,81,29.90,7.0,SSW,6.9,-,0.01,Rain,Light Rain,210,2013-02-19 13:35:00
8:55 AM,37.4,33.8,87,29.89,10.0,South,9.2,-,0.01,Rain,Light Rain,190,2013-02-19 13:55:00
9:15 AM,37.4,33.8,87,29.88,10.0,South,9.2,-,N/A,Rain,Rain,180,2013-02-19 14:15:00
9:35 AM,37.4,35.6,93,29.87,10.0,South,11.5,17.3,N/A,Rain,Light Rain,190,2013-02-19 14:35:00
9:55 AM,39.2,35.6,87,29.86,10.0,South,15.0,-,N/A,,Light Drizzle,190,2013-02-19 14:55:00
10:15 AM,41.0,35.6,81,29.86,10.0,SSW,10.4,17.3,N/A,,Mostly Cloudy,210,2013-02-19 15:15:00
10:35 AM,41.0,35.6,81,29.85,10.0,SW,10.4,19.6,N/A,,Overcast,220,2013-02-19 15:35:00
10:55 AM,41.0,35.6,81,29.84,10.0,SW,9.2,-,N/A,,Overcast,230,2013-02-19 15:55:00
11:15 AM,42.8,35.6,76,29.82,10.0,SW,10.4,-,N/A,,Mostly Cloudy,230,2013-02-19 16:15:00
11:35 AM,42.8,37.4,81,29.81,10.0,SW,8.1,17.3,N/A,,Mostly Cloudy,220,2013-02-19 16:35:00
11:55 AM,44.6,37.4,76,29.80,10.0,SW,10.4,-,N/A,,Mostly Cloudy,230,2013-02-19 16:55:00
12:15 PM,44.6,37.4,76,29.79,10.0,SW,9.2,16.1,N/A,,Overcast,230,2013-02-19 17:15:00
12:35 PM,44.6,37.4,76,29.77,10.0,SW,10.4,-,N/A,,Overcast,230,2013-02-19 17:35:00
12:55 PM,44.6,37.4,76,29.75,10.0,SW,9.2,-,N/A,,Mostly Cloudy,230,2013-02-19 17:55:00
1:35 PM,50.0,41.0,71,29.72,10.0,SSW,11.5,17.3,N/A,,Scattered Clouds,200,2013-02-19 18:35:00
1:55 PM,50.0,39.2,66,29.70,10.0,SSW,8.1,17.3,N/A,,Mostly Cloudy,210,2013-02-19 18:55:00
2:15 PM,50.0,41.0,71,29.70,10.0,South,11.5,-,N/A,,Scattered Clouds,180,2013-02-19 19:15:00
2:35 PM,51.8,41.0,67,29.69,10.0,SSW,15.0,20.7,N/A,,Scattered Clouds,210,2013-02-19 19:35:00
2:55 PM,51.8,41.0,67,29.67,10.0,SSW,8.1,17.3,N/A,,Scattered Clouds,200,2013-02-19 19:55:00
3:15 PM,51.8,39.2,62,29.67,10.0,WSW,13.8,21.9,N/A,,Scattered Clouds,240,2013-02-19 20:15:00
3:35 PM,51.8,37.4,58,29.67,10.0,WSW,15.0,20.7,N/A,,Scattered Clouds,250,2013-02-19 20:35:00
3:55 PM,46.4,37.4,71,29.69,7.0,WSW,13.8,25.3,N/A,Rain-Thunderstorm,Light Thunderstorms and Rain,250,2013-02-19 20:55:00
4:15 PM,44.6,37.4,76,29.72,10.0,SW,10.4,-,N/A,,Overcast,230,2013-02-19 21:15:00
4:35 PM,44.6,37.4,76,29.70,10.0,WSW,5.8,-,N/A,,Mostly Cloudy,240,2013-02-19 21:35:00
4:55 PM,46.4,35.6,66,29.71,10.0,West,9.2,-,N/A,,Scattered Clouds,260,2013-02-19 21:55:00
5:15 PM,46.4,33.8,62,29.72,10.0,WSW,10.4,16.1,N/A,,Scattered Clouds,240,2013-02-19 22:15:00
5:35 PM,44.6,33.8,66,29.73,10.0,WSW,8.1,19.6,N/A,,Clear,250,2013-02-19 22:35:00
5:55 PM,44.6,30.2,57,29.75,10.0,West,17.3,24.2,N/A,,Scattered Clouds,270,2013-02-19 22:55:00
6:15 PM,42.8,30.2,61,29.76,10.0,West,17.3,24.2,N/A,,Clear,280,2013-02-19 23:15:00
6:35 PM,42.8,30.2,61,29.77,10.0,West,15.0,27.6,N/A,,Clear,270,2013-02-19 23:35:00
7:35 PM,41.0,30.2,65,29.81,10.0,WNW,15.0,25.3,N/A,,Clear,290,2013-02-20 00:35:00
7:55 PM,39.2,30.2,70,29.81,10.0,West,18.4,-,N/A,,Clear,270,2013-02-20 00:55:00
8:15 PM,39.2,28.4,65,29.82,10.0,West,17.3,-,N/A,,Clear,280,2013-02-20 01:15:00
8:55 PM,37.4,28.4,70,29.83,10.0,WNW,13.8,20.7,N/A,,Scattered Clouds,290,2013-02-20 01:55:00
9:15 PM,37.4,24.8,60,29.84,10.0,West,16.1,23.0,N/A,,Scattered Clouds,280,2013-02-20 02:15:00
9:35 PM,37.4,23.0,56,29.85,10.0,West,21.9,27.6,N/A,,Scattered Clouds,270,2013-02-20 02:35:00
9:55 PM,37.4,23.0,56,29.85,10.0,West,12.7,-,N/A,,Scattered Clouds,280,2013-02-20 02:55:00
10:15 PM,35.6,24.8,65,29.85,10.0,West,19.6,27.6,N/A,,Scattered Clouds,270,2013-02-20 03:15:00
10:35 PM,35.6,23.0,60,29.85,10.0,West,18.4,31.1,N/A,,Scattered Clouds,260,2013-02-20 03:35:00
10:55 PM,35.6,23.0,60,29.85,10.0,West,16.1,23.0,N/A,,Scattered Clouds,260,2013-02-20 03:55:00
11:15 PM,35.6,23.0,60,29.85,10.0,West,17.3,26.5,N/A,,Clear,270,2013-02-20 04:15:00
11:35 PM,35.6,23.0,60,29.85,10.0,West,9.2,24.2,N/A,,Scattered Clouds,270,2013-02-20 04:35:00
11:55 PM,35.6,21.2,56,29.85,10.0,WSW,11.5,25.3,N/A,,Scattered Clouds,250,2013-02-20 04:55:00